Quillayute, WA

9:24 PM PDT on April 19, 2018 (GMT -0700)
Quillayute

Weather History for KUIL - August, 2014

Change the Weather History Date:

Sunday, August 3, 2014

  Actual Average Record
Temperature  
Mean Temperature 63 °F 60 °F  
Max Temperature 75 °F 69 °F 94 °F (1993)
Min Temperature 51 °F 51 °F 42 °F (1999)
Degree Days  
Heating Degree Days 2 5  
Month to date heating degree days 4 15  
Since 1 June heating degree days 389 503  
Since 1 July heating degree days 140 209  
Cooling Degree Days 0 0  
Month to date cooling degree days 0 0  
Year to date cooling degree days 10 11  
Since 1 June cooling degree days 6 10  
Growing Degree Days 14 (Base 50)    
Moisture  
Dew Point 55 °F    
Average Humidity 79    
Maximum Humidity 100    
Minimum Humidity 57    
Precipitation  
Precipitation 0.00 in 0.05 in 0.34 in (2001)
Month to date precipitation 0.00 0.17  
Year to date precipitation 55.16 54.40  
Sea Level Pressure  
Sea Level Pressure 30.04 in    
Wind  
Wind Speed 4 mph (WSW)    
Max Wind Speed 12 mph    
Max Gust Speed 14 mph    
Visibility 4 miles    
Events Fog    
T = Trace of Precipitation, MM = Missing Value Source: NWS Daily Summary

Daily Weather History Graph

Daily Weather History Graph

Search for Another Location

Airport or City:

Astronomy

Aug. 03, 2014 Rise Set
Actual Time 5:57 AM PDT 8:50 PM PDT
Civil Twilight 5:21 AM PDT 9:26 PM PDT
Nautical Twilight 4:35 AM PDT 10:12 PM PDT
Astronomical Twilight 3:39 AM PDT 11:07 PM PDT
Moon 2:00 PM PDT (8/3) No Moon Set
Length of Visible Light 16h 05m
Length of Day
14h 53m
Waxing Crescent, 48% of the Moon is Illuminated
Aug 3
Waxing Crescent
Aug 3
First Quarter
Aug 10
Full
Aug 17
Last Quarter
Aug 25
New

Hourly Weather History & Observations

Time (PDT) Temp. Dew Point Humidity Pressure Visibility Wind Dir Wind Speed Gust Speed Precip Events Conditions
12:16 AM 55.9 °F 55.9 °F 100% 30.05 in 1.8 mi Calm Calm - N/A   Overcast
12:30 AM 55.9 °F 55.0 °F 97% 30.05 in 1.2 mi Calm Calm - N/A   Overcast
12:37 AM 55.9 °F 55.0 °F 97% 30.05 in 2.0 mi Calm Calm - N/A   Overcast
12:53 AM 55.4 °F 55.4 °F 100% 30.05 in 1.5 mi Calm Calm - N/A   Overcast
1:53 AM 55.0 °F 55.0 °F 100% 30.05 in 0.5 mi Calm Calm - N/A Fog Fog
2:44 AM 55.0 °F 55.0 °F 100% 30.05 in 0.2 mi Calm Calm - N/A Fog Fog
2:53 AM 55.0 °F 55.0 °F 100% 30.05 in 0.2 mi ESE 3.5 mph - N/A Fog Fog
3:30 AM 55.0 °F 54.0 °F 96% 30.05 in 0.5 mi ENE 4.6 mph - N/A Fog Fog
3:38 AM 54.0 °F 54.0 °F 100% 30.05 in 0.2 mi ENE 3.5 mph - N/A Fog Fog
3:53 AM 54.0 °F 54.0 °F 100% 30.06 in 0.2 mi Calm Calm - N/A Fog Fog
4:53 AM 53.1 °F 53.1 °F 100% 30.06 in 0.2 mi East 3.5 mph - N/A Fog Fog
5:53 AM 53.1 °F 53.1 °F 100% 30.06 in 0.2 mi Calm Calm - N/A Fog Fog
6:53 AM 52.0 °F 52.0 °F 100% 30.07 in 0.2 mi Calm Calm - N/A Fog Fog
7:53 AM 52.0 °F 52.0 °F 100% 30.06 in 0.2 mi ENE 3.5 mph - N/A Fog Fog
8:38 AM 54.0 °F 54.0 °F 100% 30.07 in 1.0 mi Calm Calm - N/A   Mist
8:43 AM 55.0 °F 54.0 °F 96% 30.07 in 2.0 mi Calm Calm - N/A   Overcast
8:53 AM 55.0 °F 55.0 °F 100% 30.07 in 2.5 mi Calm Calm - N/A   Overcast
9:02 AM 55.9 °F 55.0 °F 97% 30.07 in 6.0 mi Calm Calm - N/A   Overcast
9:22 AM 57.9 °F 55.9 °F 93% 30.06 in 7.0 mi SW 3.5 mph - N/A   Scattered Clouds
9:53 AM 62.1 °F 57.0 °F 84% 30.07 in 8.0 mi SW 4.6 mph - N/A   Clear
10:53 AM 66.0 °F 55.9 °F 70% 30.06 in 8.0 mi SSW 8.1 mph - N/A   Clear
11:53 AM 68.0 °F 55.9 °F 65% 30.06 in 8.0 mi West 4.6 mph - N/A   Clear
12:53 PM 71.1 °F 55.9 °F 59% 30.05 in 7.0 mi WSW 5.8 mph - N/A   Clear
1:53 PM 71.1 °F 55.9 °F 59% 30.04 in 8.0 mi West 6.9 mph - N/A   Clear
2:53 PM 71.1 °F 55.9 °F 59% 30.03 in 7.0 mi SW 8.1 mph - N/A   Clear
3:53 PM 69.1 °F 57.0 °F 65% 30.01 in 7.0 mi WSW 10.4 mph - N/A   Clear
4:53 PM 71.1 °F 57.0 °F 61% 29.99 in 7.0 mi WSW 8.1 mph - N/A   Clear
5:53 PM 71.1 °F 57.9 °F 63% 29.98 in 7.0 mi SW 8.1 mph - N/A   Clear
6:53 PM 69.8 °F 55.4 °F 60% 29.97 in 7.0 mi WNW 6.9 mph - N/A   Clear
7:53 PM 66.0 °F 55.0 °F 68% 29.98 in 7.0 mi NNW 3.5 mph - N/A   Clear
8:53 PM 61.0 °F 53.1 °F 75% 29.99 in 7.0 mi Calm Calm - N/A   Clear
9:53 PM 57.2 °F 53.6 °F 88% 30.00 in 8.0 mi NNW 3.5 mph - N/A   Clear
10:53 PM 54.0 °F 52.0 °F 93% 30.01 in 7.0 mi Calm Calm - N/A   Clear
11:53 PM 53.1 °F 52.0 °F 96% 30.01 in 7.0 mi Calm Calm - N/A   Clear